Regional Weather Roundup
Issued by NWS

Home | Current Version | Previous Version | Graphics & Text | Print | Product List | Glossary On
Versions: 1 2 3 4 5 6 7 8 9 10 11 12 13 14 15 16 17 18 19 20 21 22 23 24 25 26 27 28 29 30 31 32 33 34 35 36 37 38 39 40 41 42 43 44 45 46 47 48 49 50
000
ASUS43 KLOT 021358
RWRIL

ILLINOIS REGIONAL WEATHER ROUNDUP
NATIONAL WEATHER SERVICE CHICAGO/ROMEOVILLE IL
900 AM CDT TUE SEP 02 2014

NOTE: "FAIR" INDICATES FEW OR NO CLOUDS BELOW 12,000 FEET WITH NO
SIGNIFICANT WEATHER AND/OR OBSTRUCTIONS TO VISIBILITY.

* THESE STATIONS ARE NOT UNDER NWS QUALITY CONTROL. THEY ALSO MAY NOT
  REPORT WEATHER SUCH AS PRECIPITATION OR FOG.

ILZ001-002-007-009-015-016-024-021500-
NORTHWEST ILLINOIS

CITY           SKY/WX    TMP DP  RH WIND       PRES   REMARKS
MOLINE         MOSUNNY   69  65  86 W5        29.92R
$$

ILZ003-004-008-010-011-017-018-021500-
NORTH CENTRAL ILLINOIS

CITY           SKY/WX    TMP DP  RH WIND       PRES   REMARKS
ROCKFORD       NOT AVBL
$$

ILZ005-006-012>014-019>023-021500-
NORTHEAST ILLINOIS

CITY           SKY/WX    TMP DP  RH WIND       PRES   REMARKS
CHICAGO-OHARE  PTSUNNY   72  63  73 CALM      29.89R
CHICAGO-MIDWAY PTSUNNY   75  66  73 NW3       29.88S
AURORA         MOSUNNY   70  65  84 CALM      29.90S
WAUKEGAN       MOSUNNY   72  64  76 NW3       29.89R
DUPAGE AIRPORT MOSUNNY   72  65  78 CALM      29.89S
WHEELING       MOSUNNY   74  65  73 N3        29.90S
NORTHERLY ISL    N/A     72  64  76 NE2         N/A
$$

LMZ740>746-021500-
SOUTHERN LAKE MICHIGAN

STATION/POSITION SKY/WX   TEMP    WIND        PRES    VSBY  WAVE
                          AIR SEA DIR/SP/G                  HT/PER
                          (F)     (DEG/KT/KT) (MB)    (MI)  (FT/S)
SOUTHERN BUOY              69 69  310/  4/  4 1011.5R         1
WAUKEGAN HARBOR            69     320/  3/  6   N/A
HARRISON CRIB              70     320/  5/  5   N/A
BURNHAM HARBOR             72      70/  4/  5   N/A
CALUMET HARBOR             73      CALM  /  2 1010.8R
MICHIGAN CITY              69     190/  5/  6   N/A
MICHIGAN CITY 6N           71 72  210/  6/  8   N/A           1/ 2
ST. JOSEPH                 71 72  360/  2/  4   N/A           1/ 3
$$

ILZ025>027-034>036-040-047-049-050-058-095>099-021500-
WEST-CENTRAL ILLINOIS

CITY           SKY/WX    TMP DP  RH WIND       PRES   REMARKS
$$

ILZ028>032-037-038-041>044-048-051>054-059>061-021500-
CENTRAL ILLINOIS

CITY           SKY/WX    TMP DP  RH WIND       PRES   REMARKS
PEORIA         PTSUNNY   73  68  83 SW6       29.92R
SPRINGFIELD    CLOUDY    72  67  84 SW5       29.95R
TAYLORVILLE    NOT AVBL
$$

ILZ033-039-045-046-055>057-062-063-021500-
EAST-CENTRAL ILLINOIS

CITY           SKY/WX    TMP DP  RH WIND       PRES   REMARKS
$$

ILZ079-100>102-021500-
SOUTHWEST ILLINOIS

CITY           SKY/WX    TMP DP  RH WIND       PRES   REMARKS
ALTON          CLOUDY    70  68  94 SW3       29.94R
$$

ILZ064>066-069>071-074>076-080>082-084>086-088>090-092>094-021500-
SOUTH-CENTRAL ILLINOIS

CITY           SKY/WX    TMP DP  RH WIND       PRES   REMARKS
CARBONDALE     CLOUDY    77  73  87 SW9       29.94S
MARION         PTSUNNY   77  75  94 SW9       29.96S
$$

ILZ067-068-072-073-078-083-087-091-021500-
SOUTHEAST ILLINOIS

CITY           SKY/WX    TMP DP  RH WIND       PRES   REMARKS
$$

ABBREVIATIONS USED IN REMARKS
   TC - TEMPERATURE IN CELSIUS
  WCI - WIND CHILL INDEX
   HX - HEAT INDEX
  VSB - VISIBILITY
$$




USA.gov is the U.S. government's official web portal to all federal, state and local government web resources and services.